#timestamp,LO_Frequency,Hit,StdDev 
1617008415.3,286046998.2,N
1617008435.1,286047000.3,N
1617008455.8,286046999.8,N
1617008475.7,286047000.1,N
1617008495.5,286047002.1,N
1617008515.4,286047001.3,N
1617008535.2,286047004.2,Y
1617008555.0,286047003.7,P
1617008555.9,286047003.7,N
1617008575.8,286047004.3,N
1617008595.6,286047002.2,N
1617008615.5,286046999.8,N
1617008635.3,286047002.3,N
1617008655.1,286047002.4,N
1617008675.9,286046999.8,N
1617008695.7,286047000.8,N
1617008715.5,286047000.0,N
1617008735.4,286047000.2,N
1617008755.2,286046999.8,N
1617008775.1,286046999.7,N
1617008776.0,286046999.7,N
1617008795.8,286047002.4,N
1617008815.6,286047001.1,N
1617008835.5,286047000.2,N
1617008855.3,286047000.6,N
1617008875.1,286046999.7,N
1617008895.9,286047000.1,N
1617008915.7,286046999.8,N
1617008935.6,286047000.5,N
1617008955.4,286046999.7,N
1617008975.2,286047000.5,N
1617008995.1,286047000.7,N
1617008996.0,286047000.7,N
1617009015.8,286046998.1,N
1617009035.7,286046999.9,N
1617009055.5,286047001.0,N
1617009075.3,286046998.7,N
1617009095.2,286046999.4,N
1617009115.0,286046998.9,N
1617009115.9,286046998.9,N
1617009135.7,286046998.8,N
1617009155.6,286047000.8,N
1617009175.4,286046998.5,N
1617009195.3,286047000.8,N
1617009215.1,286046999.9,N
1617009216.0,286046999.9,N
1617009235.8,286047003.8,Y
1617009255.7,286047005.9,P
1617009275.5,286047005.6,N
1617009295.3,286047004.2,N
1617009315.2,286047004.3,N
1617009335.0,286047001.9,N
1617009335.9,286047001.9,N
1617009355.8,286047001.4,N
1617009375.6,286047001.5,N
1617009395.4,286047001.3,N
1617009415.3,286047002.3,N
1617009435.1,286047002.5,N
1617009455.8,286046999.9,N
1617009475.7,286046999.7,N
1617009495.5,286046999.9,N
1617009515.4,286047000.9,N
1617009535.2,286047002.4,N
1617009555.0,286047002.1,N
1617009555.9,286047002.1,N
1617009575.8,286047001.7,N
1617009595.6,286047004.4,N
1617009615.4,286047001.9,N
1617009635.3,286047002.0,N
1617009655.1,286047002.3,N
1617009675.9,286047000.7,N
1617009695.7,286047002.2,N
1617009715.5,286047002.5,N
1617009735.4,286047002.1,N
1617009755.2,286047000.2,N
1617009775.0,286047000.8,N
1617009775.9,286047000.8,N
1617009795.8,286047001.1,N
1617009815.6,286046998.4,N
1617009835.5,286046998.4,N
1617009855.3,286046999.6,N
1617009875.1,286046999.6,N
1617009895.9,286046998.9,N
1617009915.7,286046999.1,N
1617009935.5,286046996.5,N
1617009955.4,286046997.1,N
1617009975.2,286046995.2,N
1617009995.0,286046995.0,N
1617009996.0,286046995.0,N
1617010015.8,286046997.0,N
1617010035.6,286046999.0,N
1617010055.5,286046998.3,N
1617010075.3,286046998.1,N
1617010095.1,286047001.2,N
1617010115.9,286047001.1,N
1617010135.7,286047001.3,N
1617010155.5,286047001.9,N
1617010175.4,286046999.8,N
1617010195.2,286047000.4,N
1617010215.1,286047000.4,N
1617010216.0,286047000.4,N
1617010235.8,286047000.0,N
1617010255.6,286047000.7,N
1617010275.5,286047002.8,N
1617010295.3,286047002.7,N
1617010315.1,286047003.3,N
1617010335.9,286047002.9,N
1617010355.7,286047003.1,N
1617010375.6,286047005.8,N
1617010395.4,286047004.0,N
1617010415.2,286047011.9,Y
1617010435.1,286047004.1,P
1617010436.0,286047004.1,N
1617010455.8,286047002.6,N
1617010475.7,286047002.2,N
1617010495.5,286047001.4,N
1617010515.3,286047001.6,N
1617010535.2,286047001.6,N
1617010555.9,286046999.7,N
1617010575.7,286047003.9,N
1617010595.6,286047002.2,N
1617010615.4,286047002.1,N
1617010635.2,286047001.4,N
1617010655.1,286047001.8,N
1617010656.0,286047001.8,N
1617010675.8,286047001.4,N
1617010695.7,286047001.6,N
1617010715.5,286047002.2,N
1617010735.3,286047002.4,N
1617010755.2,286047000.5,N
1617010776.1,286046998.3,N
1617010795.0,286046998.6,N
1617010795.9,286046998.6,N
1617010815.8,286046998.4,N
1617010835.6,286046999.1,N
1617010855.4,286046999.1,N
1617010875.3,286046999.4,N
1617010895.1,286046999.5,N
1617010915.8,286046999.6,N
1617010935.7,286046999.3,N
1617010955.5,286046994.9,Y
1617010975.4,286046993.7,P
1617010995.2,286046993.9,N
1617011015.0,286046995.0,N
1617011015.9,286046995.0,N
1617011035.8,286046999.1,N
1617011055.6,286046998.8,N
1617011075.4,286046998.7,N
1617011095.3,286046999.6,N
1617011115.1,286046995.3,N
1617011135.9,286046995.8,N
1617011155.7,286046996.4,N
1617011175.5,286046998.0,N
1617011195.4,286046995.1,N
1617011215.2,286046995.6,N
1617011235.0,286046997.6,N
1617011235.9,286046997.6,N
1617011255.8,286046997.9,N
1617011275.6,286046997.0,N
1617011295.5,286046996.9,N
1617011315.3,286046997.7,N
1617011335.1,286046997.1,N
1617011355.9,286046998.3,N
1617011375.7,286047000.4,N
1617011395.5,286046998.8,N
1617011415.4,286046998.4,N
1617011435.2,286047001.1,N
1617011455.0,286046998.1,N
1617011456.0,286046998.1,N
1617011475.8,286047000.8,N
1617011495.6,286047000.5,N
1617011515.5,286046998.7,N
1617011535.3,286046998.2,N
1617011555.1,286046998.5,N
1617011575.9,286046999.0,N
1617011595.7,286046997.0,N
1617011615.5,286046997.8,N
1617011635.4,286046997.6,N
1617011655.2,286046995.3,Y
1617011675.1,286046997.1,P
1617011676.0,286046997.1,P
1617011695.8,286046997.6,P
1617011715.6,286046995.2,Y
1617011735.5,286046998.6,P
1617011755.3,286047000.4,N
1617011775.2,286047001.6,N
1617011795.9,286047001.3,N
1617011815.7,286047004.3,N
1617011835.6,286047001.8,N
1617011855.4,286047002.2,N
1617011875.2,286047002.1,N
1617011895.1,286047002.1,N
1617011896.0,286047002.1,N
1617011915.8,286047002.7,N
1617011935.7,286047001.4,N
1617011955.5,286047002.4,N
1617011975.3,286046999.9,N
1617011995.2,286047000.9,N
